Probability
35 45 42 42 58 77 81 90 84 87 90 81 81 77 84 84 84 87 87 84 81 74 84 77 84 87 84 77 74 74 71 74 77 71 58 61 45 52 71 58 48 52 48
52 52 52 48 61 77 87 84 87 94 94 84 84 87 90 90 90 87 94 84 77 81 61 87 87 81 87 84 81 71 71 68 68 74 61 55 48 55 35 61 68 58 48
58 65 65 58 61 65 77 77 84 94 94 94 87 81 87 87 81 87 84 81 74 68 81 81 84 87 81 74 74 77 74 71 74 71 58 55 45 52 58 55 58 58 61
52 68 61 61 61 58 65 84 90 94 97 94 90 87 84 77 81 84 84 84 77 71 71 71 74 81 81 81 74 74 71 71 74 71 71 61 58 52 48 61 58 55 61
45 58 65 61 65 65 68 77 87 94 90 90 90 84 81 81 81 84 84 87 77 77 71 71 74 74 81 81 74 77 74 71 68 74 77 65 68 58 58 48 58 58 55
45 58 65 71 68 65 65 74 94 94 87 87 87 81 81 77 77 81 81 81 81 77 74 74 68 71 74 74 77 74 77 77 74 74 74 71 71 68 58 58 55 55 61
39 52 61 68 65 61 65 68 90 90 90 81 77 74 81 87 87 87 77 77 71 68 71 71 74 74 74 74 71 74 71 71 77 77 74 77 74 74 65 61 65 55 55
29 45 58 65 71 61 65 68 87 90 90 87 84 77 77 77 74 81 81 77 74 74 71 74 74 77 71 71 74 71 71 68 71 74 77 77 74 77 74 71 65 52 58
39 45 52 68 65 61 71 71 84 90 90 87 87 84 77 77 77 81 81 77 81 74 71 71 74 74 74 71 74 71 77 71 68 68 77 77 71 65 68 71 61 58 55
35 39 48 52 61 58 74 77 81 84 84 81 84 74 81 74 81 74 74 74 74 74 74 74 71 74 74 77 77 77 74 74 74 77 71 74 68 65 68 61 61 58 58
32 29 35 42 42 52 61 74 81 84 84 84 84 81 77 84 81 74 68 68 71 71 68 71 71 65 68 71 74 65 68 65 65 68 61 68 68 61 58 65 55 65 68
32 32 42 48 48 48 55 68 71 71 74 74 81 81 81 77 71 68 65 65 65 68 68 68 71 68 68 68 65 65 61 65 65 65 58 65 61 71 61 61 61 61 55
39 39 52 52 52 55 55 58 61 61 65 71 71 77 65 65 65 65 71 74 68 65 68 71 71 71 71 71 65 58 58 61 65 61 65 58 55 58 58 61 61 52 45
42 48 52 58 58 65 71 61 58 58 65 68 65 61 58 61 65 65 65 65 71 74 74 68 65 68 65 61 61 65 68 65 58 61 61 58 55 55 58 45 48 52 52
35 48 55 58 61 65 71 58 61 55 61 61 61 65 61 61 65 68 65 65 65 68 71 68 61 65 65 65 61 65 65 65 61 61 58 48 45 39 39 32 48 48 52
39 39 48 58 65 68 65 65 65 68 68 68 61 65 61 61 58 61 61 65 65 71 68 71 68 68 55 52 48 58 65 65 61 55 58 39 39 29 16 16 13 19 35
39 42 55 58 68 68 74 74 71 71 71 71 61 61 58 55 58 48 58 61 61 71 68 68 68 61 58 39 29 32 55 61 58 55 52 32 26 23 26 16 13 10 6
35 42 42 48 52 58 52 68 65 65 71 71 61 55 55 55 55 58 61 65 68 65 65 65 61 61 58 35 29 16 39 52 52 55 52 42 39 32 29 29 19 29 19
39 39 35 32 42 52 58 58 55 58 58 55 55 55 48 52 52 48 48 61 65 65 61 68 61 58 55 29 23 3 42 48 52 48 45 42 35 26 19 23 26 29 23
35 35 29 29 39 48 45 45 45 45 48 42 52 52 55 55 52 52 58 58 55 65 52 52 52 52 55 26 19 0 35 45 48 52 32 19 23 23 16 19 29 29 23
29 29 26 23 45 52 48 52 45 45 48 55 45 48 48 55 61 74 65 58 55 55 55 42 42 58 52 29 13 0 32 42 39 32 35 23 16 10 6 13 26 19 13
26 26 32 39 55 52 48 58 55 58 61 58 52 52 61 42 32 58 71 65 61 55 55 55 45 52 39 23 16 0 6 29 32 29 26 19 6 3 3 6 6 3 3
13 19 32 39 58 42 39 48 52 55 55 58 65 61 65 71 71 65 52 55 58 42 35 32 29 29 35 23 19 0 0 3 19 26 13 6 3 0 3 0 0 0 6
19 16 16 29 32 39 39 45 58 55 58 61 71 68 61 61 71 71 48 42 39 32 29 32 32 29 35 23 16 10 0 0 0 6 6 3 0 0 6 0 0 0 10
19 23 23 19 26 29 39 35 48 61 55 45 48 39 29 26 55 61 55 39 39 23 19 26 26 32 29 19 10 13 16 13 10 3 3 6 6 3 6 3 3 6 6
23 19 19 19 16 29 35 39 52 55 52 39 39 29 19 26 35 35 35 6 13 10 3 6 10 16 13 10 3 6 6 3 3 3 6 10 10 10 6 6 6 3 6
Height
5914 5914 5914 5913 5913 5912 5912 5912 5911 5911 5911 5911 5910 5910 5911 5911 5911 5911 5912 5912 5912 5913 5913 5913 5913 5913 5912 5912 5911 5911 5910 5910 5909 5908 5908 5907 5907 5908 5907 5907 5907 5906 5906
5914 5914 5913 5913 5913 5912 5912 5912 5911 5911 5911 5911 5911 5911 5911 5911 5911 5911 5912 5912 5912 5913 5913 5913 5913 5912 5912 5911 5911 5910 5909 5909 5908 5907 5906 5906 5907 5906 5906 5905 5905 5904 5904
5914 5914 5913 5913 5913 5912 5912 5912 5912 5911 5911 5911 5911 5910 5911 5911 5911 5911 5911 5912 5912 5912 5913 5913 5913 5912 5911 5911 5910 5909 5908 5907 5907 5906 5906 5905 5905 5904 5904 5903 5902 5902 5902
5913 5913 5913 5913 5912 5912 5911 5911 5911 5911 5911 5911 5910 5910 5910 5910 5910 5911 5911 5911 5912 5912 5912 5912 5911 5911 5910 5909 5909 5908 5907 5906 5905 5905 5904 5904 5903 5903 5902 5901 5901 5900 5900
5913 5912 5912 5912 5911 5911 5911 5911 5910 5910 5910 5910 5910 5909 5910 5909 5909 5910 5910 5910 5911 5911 5911 5910 5910 5910 5909 5908 5907 5907 5906 5905 5904 5903 5903 5902 5901 5901 5900 5900 5899 5899 5898
5911 5911 5911 5911 5910 5910 5910 5909 5909 5909 5909 5909 5908 5908 5908 5908 5908 5908 5908 5908 5909 5909 5909 5909 5908 5907 5907 5906 5905 5905 5904 5903 5902 5901 5901 5900 5899 5898 5898 5897 5896 5896 5895
5909 5909 5909 5909 5909 5908 5908 5908 5907 5907 5907 5907 5907 5906 5906 5906 5906 5906 5906 5906 5906 5907 5907 5907 5906 5905 5904 5904 5903 5903 5902 5901 5900 5899 5898 5897 5896 5896 5895 5894 5894 5893 5892
5907 5906 5906 5906 5906 5906 5906 5905 5905 5905 5904 5904 5904 5904 5903 5902 5903 5903 5903 5903 5903 5904 5904 5904 5903 5903 5902 5901 5901 5900 5899 5898 5897 5896 5895 5894 5893 5892 5892 5891 5891 5890 5889
5905 5904 5904 5903 5902 5902 5903 5903 5902 5902 5902 5901 5901 5901 5901 5900 5900 5900 5900 5900 5900 5900 5900 5900 5900 5899 5899 5898 5897 5896 5895 5894 5893 5892 5891 5890 5889 5889 5888 5887 5886 5886 5885
5902 5902 5901 5901 5900 5899 5899 5900 5900 5899 5898 5898 5898 5898 5898 5898 5897 5897 5897 5897 5896 5896 5896 5896 5896 5895 5895 5894 5893 5893 5892 5891 5890 5889 5887 5886 5885 5884 5883 5883 5882 5881 5880
5899 5898 5898 5897 5897 5897 5897 5896 5896 5895 5895 5895 5894 5894 5894 5894 5894 5894 5893 5893 5892 5892 5892 5892 5891 5891 5890 5889 5889 5888 5887 5886 5885 5884 5883 5882 5880 5879 5878 5877 5876 5876 5875
5894 5894 5894 5894 5893 5893 5892 5892 5891 5891 5891 5890 5890 5889 5889 5889 5889 5889 5889 5888 5888 5887 5887 5887 5886 5885 5885 5884 5883 5882 5882 5881 5880 5879 5878 5876 5875 5874 5873 5872 5871 5870 5869
5891 5891 5890 5890 5890 5889 5888 5887 5885 5886 5886 5885 5885 5884 5884 5883 5884 5884 5883 5883 5882 5882 5881 5881 5880 5880 5879 5878 5878 5877 5876 5875 5874 5873 5872 5871 5869 5868 5867 5866 5865 5864 5863
5886 5886 5885 5885 5885 5884 5883 5882 5881 5880 5879 5879 5879 5879 5878 5878 5877 5877 5877 5877 5876 5876 5875 5875 5874 5874 5873 5872 5871 5870 5869 5869 5867 5866 5865 5865 5863 5862 5860 5860 5859 5858 5857
5880 5880 5880 5879 5878 5878 5877 5876 5875 5874 5873 5872 5872 5872 5872 5871 5871 5870 5870 5870 5869 5869 5868 5868 5867 5867 5866 5865 5864 5863 5862 5862 5860 5859 5858 5858 5857 5856 5854 5853 5852 5851 5851
5873 5874 5873 5873 5872 5871 5871 5870 5869 5867 5866 5865 5865 5865 5865 5864 5863 5862 5862 5862 5861 5861 5861 5860 5860 5859 5858 5858 5857 5856 5855 5854 5853 5852 5851 5850 5849 5848 5847 5846 5845 5844 5843
5866 5866 5866 5865 5864 5864 5863 5862 5861 5860 5859 5859 5858 5857 5856 5856 5855 5853 5853 5853 5852 5852 5852 5852 5851 5851 5850 5849 5848 5847 5846 5845 5844 5843 5842 5842 5841 5840 5839 5837 5837 5836 5835
5857 5857 5857 5856 5855 5855 5854 5853 5853 5852 5851 5850 5850 5849 5848 5847 5845 5844 5844 5843 5843 5842 5842 5842 5841 5841 5841 5839 5839 5838 5837 5836 5835 5835 5834 5833 5832 5831 5830 5829 5828 5828 5827
5849 5848 5848 5847 5846 5846 5845 5845 5844 5843 5842 5841 5841 5840 5839 5837 5836 5835 5834 5834 5833 5833 5833 5832 5832 5831 5831 5830 5829 5828 5827 5827 5826 5825 5825 5824 5823 5822 5821 5820 5820 5819 5818
5839 5838 5838 5837 5837 5836 5835 5835 5834 5833 5833 5832 5831 5829 5828 5827 5826 5825 5825 5824 5824 5823 5823 5822 5821 5821 5821 5820 5819 5818 5817 5817 5816 5816 5815 5814 5813 5813 5812 5811 5810 5809 5809
5829 5828 5828 5827 5826 5826 5825 5824 5824 5823 5822 5821 5820 5819 5818 5817 5816 5815 5814 5814 5813 5813 5812 5812 5811 5811 5810 5810 5809 5808 5807 5806 5806 5805 5805 5804 5803 5803 5802 5801 5800 5799 5798
5818 5818 5817 5816 5816 5815 5815 5814 5813 5812 5811 5810 5809 5808 5808 5806 5805 5804 5804 5803 5802 5801 5801 5800 5800 5799 5799 5798 5797 5797 5796 5795 5795 5795 5794 5794 5793 5792 5791 5790 5790 5789 5788
5808 5807 5806 5806 5805 5804 5804 5803 5802 5801 5800 5799 5799 5798 5797 5795 5794 5793 5792 5792 5791 5790 5789 5789 5788 5787 5786 5786 5785 5785 5784 5784 5784 5783 5783 5782 5782 5781 5780 5780 5779 5778 5777
5798 5797 5795 5794 5793 5792 5792 5791 5791 5790 5789 5788 5787 5786 5785 5784 5783 5782 5781 5780 5779 5778 5777 5777 5776 5775 5775 5774 5774 5773 5772 5772 5772 5772 5772 5771 5770 5769 5769 5768 5768 5767 5766
5787 5786 5784 5783 5781 5780 5779 5779 5778 5777 5776 5775 5775 5774 5773 5772 5771 5770 5769 5767 5767 5766 5765 5764 5764 5763 5763 5763 5762 5761 5760 5760 5760 5760 5760 5760 5759 5759 5758 5757 5757 5756 5755
5776 5774 5773 5771 5770 5768 5767 5766 5765 5764 5764 5763 5762 5761 5760 5760 5758 5757 5756 5755 5754 5753 5752 5752 5752 5751 5751 5751 5749 5748 5748 5748 5748 5748 5748 5747 5747 5747 5747 5746 5745 5745 5744
Wind_Speed
7 7 7 7 7 6 6 5 5 5 5 5 4 4 3 3 2 2 2 2 2 2 2 2 3 4 5 6 6 7 7 7 7 7 8 7 6 7 7 7 7 7 7
7 7 7 7 7 7 6 6 6 5 5 5 5 4 4 4 3 3 3 3 3 3 3 3 4 5 6 7 7 7 7 7 8 8 8 7 7 7 8 8 8 7 8
9 8 8 8 7 7 7 7 6 6 6 5 5 5 5 5 5 4 4 4 4 4 4 5 6 7 7 8 8 8 9 8 8 8 8 7 7 7 8 8 8 7 8
9 7 8 8 7 7 7 7 7 7 7 6 6 6 6 6 6 6 6 6 6 6 6 7 7 8 8 9 8 9 9 8 8 8 8 8 9 8 9 9 9 8 8
10 9 8 9 9 9 8 8 8 8 8 8 8 7 7 7 7 7 7 8 8 7 8 8 9 9 9 10 9 9 9 9 9 9 9 10 10 10 10 10 9 9 9
12 11 10 9 10 10 10 9 9 9 9 10 9 9 9 9 9 9 9 9 9 9 9 10 11 11 10 10 11 11 11 12 11 11 11 11 12 11 11 11 10 10 11
13 12 11 11 11 11 11 11 10 10 11 11 11 11 11 11 10 10 10 10 11 11 11 11 12 12 11 11 12 12 13 13 13 13 13 13 13 13 12 12 12 12 13
16 15 13 13 12 12 12 12 11 12 12 13 13 13 12 12 12 12 12 13 13 13 13 13 13 14 13 13 14 14 14 15 15 15 16 15 14 14 15 14 14 14 14
16 16 16 15 14 13 13 14 14 14 14 14 15 14 13 13 12 13 14 15 15 15 15 15 15 15 15 15 16 16 16 16 16 17 17 17 17 17 17 17 16 16 16
17 16 17 17 17 16 15 16 16 16 16 17 16 15 15 15 14 14 15 16 17 17 17 17 17 17 17 17 17 17 17 17 18 18 19 19 19 19 19 19 19 19 18
18 17 17 18 19 19 18 17 17 18 18 18 18 18 18 18 18 18 18 18 18 19 20 20 20 20 20 20 20 20 20 20 21 21 21 21 21 21 21 21 21 21 20
20 19 19 19 20 21 21 20 19 19 19 19 20 20 21 21 20 20 20 20 20 20 21 21 22 23 23 23 22 22 22 23 23 23 23 23 23 23 23 22 22 22 22
22 22 21 21 21 22 23 23 23 22 22 22 22 22 23 22 22 23 23 22 22 22 23 23 23 23 24 25 25 25 25 25 25 25 25 24 24 24 24 24 24 23 23
23 23 23 23 23 23 25 25 25 25 24 24 24 24 24 24 25 25 25 25 24 24 24 24 24 25 25 26 26 27 27 27 27 27 26 26 26 26 25 25 25 25 25
26 25 25 25 25 25 26 26 27 27 27 27 27 27 27 27 28 28 28 28 27 27 27 27 26 27 27 27 28 28 28 28 28 28 28 28 27 27 27 27 27 27 27
28 28 28 29 29 29 29 29 29 30 29 28 29 30 30 30 31 31 31 31 31 30 30 29 28 29 29 29 29 30 30 30 29 29 29 29 28 28 28 29 29 29 28
31 31 30 31 31 31 31 31 31 32 32 32 32 32 33 33 33 33 33 33 33 32 32 31 30 31 31 31 31 31 31 31 31 31 30 30 30 30 30 30 30 30 29
34 33 33 33 33 33 33 33 33 33 33 34 34 34 35 35 35 36 35 35 35 35 34 33 33 33 33 33 33 32 33 33 32 32 32 32 32 32 32 32 31 31 31
37 36 35 35 35 35 35 35 35 35 35 35 35 35 36 36 36 36 37 37 37 36 35 35 35 35 35 34 33 34 34 34 34 33 34 34 33 33 34 33 33 32 33
37 37 36 36 36 36 37 37 37 37 37 37 37 36 36 36 36 37 38 38 38 38 38 37 36 36 36 36 36 36 35 35 34 34 34 34 34 35 34 34 34 34 34
38 38 37 37 37 38 38 38 37 38 38 38 38 38 37 37 37 37 38 39 39 39 39 39 38 38 38 38 38 37 37 36 36 35 35 35 35 36 36 36 36 35 35
39 38 38 38 38 38 39 39 39 39 39 39 39 39 39 38 38 39 40 40 40 40 40 40 39 40 40 39 39 39 38 38 38 37 37 37 37 37 37 37 37 36 36
39 39 40 40 40 40 39 40 40 40 40 41 40 39 40 40 40 41 41 41 41 42 41 41 40 39 39 39 40 40 39 39 39 39 39 39 38 37 37 37 37 36 36
39 40 40 40 40 41 41 41 41 41 42 42 42 42 42 42 42 42 42 42 42 42 41 41 40 40 40 39 39 39 40 40 40 40 39 38 38 38 37 37 36 36 36
39 39 40 40 41 41 42 43 43 43 43 43 43 43 44 43 43 43 42 42 41 41 41 40 39 39 39 39 40 40 40 40 40 39 38 37 37 38 37 37 37 36 36
40 40 40 41 42 42 42 43 43 44 44 44 44 44 44 44 44 43 42 42 42 41 40 40 39 39 39 39 38 37 38 38 38 38 37 37 37 37 37 37 36 36 36
Wind_Direction
348 355 355 355 353 354 356 352 344 344 346 345 339 331 317 310 312 306 295 303 298 308 312 320 331 323 321 325 325 327 324 323 317 308 299 296 301 304 300 298 298 299 299
338 349 349 348 349 348 343 341 334 334 335 336 337 331 325 313 308 304 293 294 296 296 296 314 322 329 328 331 329 330 327 327 323 317 308 300 298 297 302 299 300 300 300
320 336 339 338 340 340 335 329 330 330 329 327 325 319 318 316 314 294 288 289 290 295 306 313 316 320 322 320 319 322 325 322 323 323 319 310 303 300 301 301 300 298 301
314 324 325 327 328 325 321 321 322 323 320 317 316 312 307 307 307 295 280 284 285 290 299 305 309 314 319 316 315 321 325 326 330 330 326 322 321 317 310 303 301 299 304
309 313 317 315 312 310 310 307 310 315 312 309 310 310 307 305 303 297 283 282 281 284 293 302 307 309 312 313 313 317 321 320 319 321 320 316 316 316 313 307 303 301 300
298 301 305 306 306 305 305 299 301 304 303 304 307 307 303 300 297 292 287 286 283 284 289 297 301 300 305 309 312 311 309 312 310 310 310 307 306 307 307 308 306 302 298
288 292 297 298 300 301 303 302 298 299 299 301 303 303 302 297 291 287 284 284 284 282 284 292 297 299 300 303 305 305 303 303 304 304 304 302 298 299 301 301 300 300 301
283 289 290 290 294 298 301 305 302 300 298 297 298 298 300 293 289 284 281 281 283 284 283 287 292 296 296 298 301 303 303 300 297 299 299 297 295 295 296 297 296 294 296
282 286 287 287 287 291 298 302 302 300 297 295 292 293 296 292 289 289 284 283 283 282 282 284 287 290 292 294 296 298 300 300 297 295 295 295 293 293 293 293 293 292 292
279 278 282 284 286 290 294 299 300 298 296 293 292 290 290 291 290 291 291 289 288 286 285 284 284 284 288 291 293 297 296 298 299 296 294 293 293 292 290 289 290 291 292
279 277 281 285 287 288 290 293 295 297 296 291 289 287 287 288 288 289 290 289 290 290 287 286 285 285 286 287 289 292 293 294 296 295 294 294 293 293 291 288 288 289 289
280 279 281 283 286 287 287 288 288 292 293 293 290 287 285 286 286 286 287 287 287 288 287 287 287 286 286 287 288 290 290 291 293 293 292 293 293 291 290 289 288 287 288
281 279 280 281 283 284 285 287 286 287 288 287 288 287 287 285 285 284 283 285 284 285 286 287 287 287 287 287 288 288 288 289 290 291 291 290 291 289 288 288 289 288 288
280 280 281 282 281 282 284 284 284 284 284 284 284 285 286 285 284 283 282 282 282 282 283 284 284 284 286 287 288 287 287 287 288 289 290 290 290 289 288 290 290 288 286
279 278 278 279 280 281 281 282 283 282 283 282 283 284 284 284 281 281 278 279 280 280 281 282 281 281 282 284 285 287 286 286 287 287 288 288 289 289 288 289 290 287 284
278 278 278 278 279 279 279 280 280 281 282 282 282 284 284 283 282 280 276 277 278 278 279 281 281 281 282 283 283 284 284 284 284 284 285 286 287 287 287 287 288 286 285
277 276 277 278 278 278 278 278 277 280 280 281 282 282 284 283 283 280 276 276 277 278 279 279 281 283 281 281 282 282 283 283 282 282 283 284 283 284 286 285 285 285 284
279 278 278 278 277 277 277 278 278 278 279 280 280 281 282 282 282 280 277 276 277 277 278 280 281 282 282 281 281 282 282 282 282 281 281 282 281 283 285 285 284 284 283
279 280 279 279 278 277 277 277 278 278 278 278 279 280 280 280 281 280 279 277 278 278 278 279 280 280 281 280 280 281 282 281 280 280 281 282 282 283 284 283 282 281 283
280 280 280 279 278 277 277 277 277 278 278 278 279 279 280 280 280 279 278 278 277 278 279 279 279 280 281 281 280 280 280 280 279 279 280 281 282 284 285 284 282 282 283
280 280 279 278 277 276 275 275 277 277 277 277 278 279 280 280 279 278 278 278 278 278 279 279 279 279 279 279 280 280 280 280 280 280 280 281 281 283 283 284 284 282 282
279 279 279 278 278 276 275 275 276 277 277 278 278 279 279 279 279 278 277 277 278 279 279 279 278 278 278 278 278 279 279 279 279 279 279 280 280 281 282 283 283 282 281
279 278 278 279 277 276 275 273 275 276 277 277 277 277 278 278 279 279 279 278 278 278 278 278 277 277 277 276 276 277 277 276 277 277 278 278 278 280 280 283 281 279 280
278 279 279 279 278 276 275 274 274 275 275 276 277 277 277 278 278 279 279 279 278 277 277 276 276 276 276 276 275 276 276 275 276 276 276 278 280 281 281 281 280 279 279
280 281 280 279 278 277 275 274 275 275 276 276 276 277 277 277 278 278 279 278 277 276 275 274 275 276 275 275 276 277 276 276 276 277 277 277 278 280 280 280 280 278 277
281 281 281 280 279 278 276 274 274 275 276 276 276 276 277 278 278 278 278 278 277 276 274 273 274 274 274 274 275 275 274 275 276 277 277 278 279 279 279 280 278 278 279